When you browse on this site, cookies collect data to enhance your experience and personalize the content and advertising you see.
Visit our Privacy Policy to learn more. By continuing to use the site, you agree to this use of cookies and data.
  • In Switzerland
  • List of Countries
  • For 7 days
  • Water Temperature
  • Satellite Maps
  • Weather Map
  • Weather Widgets
  • user-avatar
    Login

    Hourly Weather Lubczyna

    Today, 12 December, Wednesday

    Time Temperature Precipitation Wind Pressure Humidity
    00:00 +1°C° 0.1 mm 2 mps 747 mmHg 95%
    01:00 0°C° 0 mm 3 mps 747 mmHg 92%
    02:00 0°C° 0.1 mm 3 mps 747 mmHg 91%
    03:00 +1°C° 0.1 mm 2 mps 748 mmHg 91%
    04:00 +1°C° 0.1 mm 2 mps 748 mmHg 90%
    05:00 -1°C° 0 mm 2 mps 748 mmHg 90%
    06:00 -1°C° 0 mm 2 mps 749 mmHg 89%
    07:00 -1°C° 0 mm 2 mps 749 mmHg 90%
    08:00 -1°C° 0 mm 2 mps 750 mmHg 86%
    09:00 0°C° 0 mm 3 mps 750 mmHg 83%
    10:00 0°C° 0 mm 3 mps 751 mmHg 80%
    11:00 +1°C° 0.1 mm 3 mps 751 mmHg 77%
    12:00 +1°C° 0.1 mm 3 mps 751 mmHg 74%
    13:00 +1°C° 0.1 mm 3 mps 751 mmHg 71%
    14:00 +1°C° 0 mm 3 mps 752 mmHg 75%
    15:00 0°C° 0 mm 3 mps 752 mmHg 79%
    16:00 -1°C° 0 mm 2 mps 752 mmHg 83%
    17:00 -1°C° 0 mm 2 mps 752 mmHg 85%
    18:00 -1°C° 0 mm 2 mps 752 mmHg 87%
    19:00 -2°C° 0 mm 2 mps 752 mmHg 89%
    20:00 -2°C° 0 mm 2 mps 753 mmHg 90%
    21:00 -2°C° 0 mm 2 mps 753 mmHg 91%
    22:00 -2°C° 0 mm 2 mps 753 mmHg 92%
    23:00 -2°C° 0 mm 2 mps 753 mmHg 93%

    Tomorrow, 13 December, Thursday

    Time Temperature Precipitation Wind Pressure Humidity
    00:00 +1°C° 0 mm 1 mps 753 mmHg 93%
    01:00 +1°C° 0 mm 1 mps 753 mmHg 93%
    02:00 +1°C° 0.1 mm 1 mps 753 mmHg 93%
    03:00 -1°C° 0.1 mm 2 mps 753 mmHg 93%
    04:00 -1°C° 0.1 mm 2 mps 753 mmHg 93%
    05:00 -1°C° 0.1 mm 2 mps 753 mmHg 93%
    06:00 -1°C° 0.1 mm 2 mps 753 mmHg 94%
    07:00 -1°C° 0.1 mm 2 mps 753 mmHg 94%
    08:00 -1°C° 0.1 mm 2 mps 753 mmHg 92%
    09:00 -1°C° 0.1 mm 2 mps 753 mmHg 90%
    10:00 +1°C° 0.1 mm 2 mps 753 mmHg 88%
    11:00 +1°C° 0 mm 2 mps 753 mmHg 87%
    12:00 +1°C° 0 mm 2 mps 753 mmHg 85%
    13:00 +1°C° 0 mm 2 mps 752 mmHg 84%
    14:00 +1°C° 0 mm 2 mps 752 mmHg 85%
    15:00 -1°C° 0 mm 2 mps 752 mmHg 86%
    16:00 -1°C° 0 mm 2 mps 752 mmHg 88%
    17:00 -1°C° 0 mm 2 mps 752 mmHg 88%
    18:00 -1°C° 0 mm 2 mps 752 mmHg 89%
    19:00 -1°C° 0 mm 2 mps 753 mmHg 89%
    20:00 -1°C° 0 mm 2 mps 753 mmHg 89%
    21:00 0°C° 0 mm 1 mps 753 mmHg 89%
    22:00 0°C° 0 mm 1 mps 753 mmHg 89%
    23:00 0°C° 0 mm 1 mps 753 mmHg 89%

    Day after tomorrow, 14 December, Friday

    Time Temperature Precipitation Wind Pressure Humidity
    00:00 0°C° 0 mm 1 mps 753 mmHg 89%
    01:00 0°C° 0 mm 1 mps 753 mmHg 89%
    02:00 0°C° 0 mm 1 mps 753 mmHg 89%
    03:00 -2°C° 0 mm 2 mps 753 mmHg 88%
    04:00 -2°C° 0 mm 2 mps 753 mmHg 88%
    05:00 -2°C° 0 mm 2 mps 753 mmHg 88%
    06:00 -3°C° 0 mm 2 mps 754 mmHg 89%
    07:00 -3°C° 0 mm 2 mps 754 mmHg 89%
    08:00 -2°C° 0 mm 2 mps 754 mmHg 85%
    09:00 -2°C° 0 mm 2 mps 754 mmHg 82%
    10:00 -2°C° 0 mm 2 mps 754 mmHg 78%
    11:00 -2°C° 0 mm 2 mps 754 mmHg 76%
    12:00 -1°C° 0 mm 2 mps 754 mmHg 73%
    13:00 -1°C° 0 mm 2 mps 754 mmHg 70%
    14:00 -1°C° 0 mm 2 mps 754 mmHg 73%
    15:00 -2°C° 0 mm 2 mps 754 mmHg 76%
    16:00 -2°C° 0 mm 2 mps 755 mmHg 79%
    17:00 -3°C° 0 mm 2 mps 755 mmHg 80%
    18:00 -3°C° 0 mm 2 mps 755 mmHg 82%
    19:00 -3°C° 0 mm 2 mps 755 mmHg 83%
    20:00 -3°C° 0 mm 2 mps 755 mmHg 86%
    21:00 -3°C° 0 mm 2 mps 755 mmHg 88%
    22:00 -3°C° 0 mm 2 mps 755 mmHg 90%
    23:00 -3°C° 0 mm 2 mps 755 mmHg 90%

    15 December, Saturday

    Time Temperature Precipitation Wind Pressure Humidity
    00:00 -2°C° 0 mm 3 mps 755 mmHg 91%
    01:00 -2°C° 0 mm 3 mps 755 mmHg 92%
    02:00 -2°C° 0 mm 3 mps 755 mmHg 91%
    03:00 -2°C° 0 mm 3 mps 755 mmHg 90%
    04:00 -2°C° 0 mm 3 mps 755 mmHg 90%
    05:00 -2°C° 0 mm 3 mps 755 mmHg 90%
    06:00 -2°C° 0 mm 3 mps 755 mmHg 91%
    07:00 -2°C° 0 mm 3 mps 756 mmHg 91%
    08:00 -3°C° 0 mm 4 mps 756 mmHg 88%
    09:00 -2°C° 0 mm 4 mps 756 mmHg 85%
    10:00 -2°C° 0 mm 4 mps 756 mmHg 82%
    11:00 -2°C° 0 mm 4 mps 756 mmHg 79%
    12:00 -2°C° 0 mm 4 mps 756 mmHg 77%
    13:00 -2°C° 0 mm 4 mps 756 mmHg 75%
    14:00 -2°C° 0 mm 4 mps 756 mmHg 75%
    15:00 -2°C° 0 mm 4 mps 756 mmHg 76%
    16:00 -3°C° 0 mm 4 mps 756 mmHg 76%
    17:00 -3°C° 0 mm 4 mps 756 mmHg 75%
    18:00 -3°C° 0 mm 4 mps 756 mmHg 75%
    19:00 -4°C° 0 mm 5 mps 756 mmHg 74%
    20:00 -3°C° 0 mm 4 mps 756 mmHg 73%
    21:00 -3°C° 0 mm 4 mps 755 mmHg 73%
    22:00 -3°C° 0 mm 4 mps 755 mmHg 72%
    23:00 -3°C° 0 mm 4 mps 755 mmHg 74%

    16 December, Sunday

    Time Temperature Precipitation Wind Pressure Humidity
    00:00 -3°C° 0 mm 4 mps 755 mmHg 75%
    01:00 -3°C° 0 mm 4 mps 754 mmHg 76%
    02:00 -3°C° 0 mm 4 mps 754 mmHg 78%
    03:00 -3°C° 0 mm 4 mps 754 mmHg 79%
    04:00 -3°C° 0 mm 4 mps 753 mmHg 81%
    05:00 -3°C° 0 mm 4 mps 753 mmHg 82%
    06:00 -2°C° 0 mm 3 mps 753 mmHg 83%
    07:00 -2°C° 0 mm 3 mps 753 mmHg 84%
    08:00 -2°C° 0 mm 3 mps 753 mmHg 84%
    09:00 -2°C° 0 mm 3 mps 752 mmHg 83%
    10:00 -1°C° 0 mm 3 mps 752 mmHg 83%
    11:00 -1°C° 0 mm 3 mps 752 mmHg 82%
    12:00 -1°C° 0 mm 3 mps 751 mmHg 81%
    13:00 -1°C° 0 mm 3 mps 751 mmHg 81%
    14:00 -1°C° 0 mm 2 mps 751 mmHg 83%
    15:00 -1°C° 0 mm 2 mps 750 mmHg 85%
    16:00 -2°C° 0 mm 2 mps 750 mmHg 88%
    17:00 -1°C° 0 mm 3 mps 750 mmHg 87%
    18:00 -1°C° 0 mm 3 mps 750 mmHg 86%
    19:00 -2°C° 0 mm 4 mps 749 mmHg 85%
    20:00 -2°C° 0 mm 4 mps 749 mmHg 85%
    21:00 -2°C° 0 mm 4 mps 749 mmHg 85%
    22:00 -1°C° 0 mm 4 mps 749 mmHg 85%
    23:00 -1°C° 0 mm 4 mps 749 mmHg 85%

    17 December, Monday

    Time Temperature Precipitation Wind Pressure Humidity
    00:00 -1°C° 0 mm 4 mps 748 mmHg 86%
    01:00 -1°C° 0 mm 4 mps 748 mmHg 87%
    02:00 0°C° 0 mm 3 mps 748 mmHg 88%
    03:00 0°C° 0 mm 3 mps 748 mmHg 88%
    04:00 0°C° 0 mm 3 mps 747 mmHg 89%
    05:00 0°C° 0.3 mm 3 mps 748 mmHg 89%
    06:00 +1°C° 0.3 mm 2 mps 748 mmHg 89%
    07:00 +1°C° 0.3 mm 2 mps 748 mmHg 89%
    08:00 +1°C° 1.3 mm 2 mps 748 mmHg 91%
    09:00 +1°C° 1.3 mm 2 mps 748 mmHg 92%
    10:00 +1°C° 1.3 mm 2 mps 749 mmHg 93%
    11:00 +1°C° 1 mm 2 mps 749 mmHg 95%
    12:00 +1°C° 1 mm 2 mps 749 mmHg 96%
    13:00 +1°C° 1 mm 2 mps 749 mmHg 98%
    14:00 +1°C° 0.4 mm 2 mps 749 mmHg 97%
    15:00 +1°C° 0.4 mm 2 mps 749 mmHg 97%
    16:00 +1°C° 0.4 mm 2 mps 749 mmHg 96%
    17:00 -1°C° 0.1 mm 2 mps 750 mmHg 96%
    18:00 -1°C° 0.1 mm 2 mps 750 mmHg 96%
    19:00 -1°C° 0.1 mm 2 mps 750 mmHg 96%
    20:00 -1°C° 0 mm 2 mps 751 mmHg 96%
    21:00 -2°C° 0 mm 2 mps 751 mmHg 96%
    22:00 -2°C° 0 mm 2 mps 752 mmHg 96%
    23:00 -2°C° 0 mm 2 mps 752 mmHg 96%
    Show more